This is the latest recevied weather packets stored in our database for station/object N9XRG. If no packets are shown the sender has not sent any weather packets the latest 10 day(s).
| Time | Temp. | Humidity | Pressure | Rain* | Wind** | Luminosity | Snow |
|---|---|---|---|---|---|---|---|
| 1777758852 | 11.11° C | 37% | 1017.1 hPa | 0 mm | - | 96 W/m² | - |
| 1777758548 | 11.11° C | 39% | 1016.8 hPa | 0 mm | - | 106 W/m² | - |
| 1777758245 | 11.67° C | 37% | 1017 hPa | 0 mm | - | 124 W/m² | - |
| 1777757942 | 11.67° C | 41% | 1017 hPa | 0 mm | - | 158 W/m² | - |
| 1777757639 | 11.11° C | 40% | 1017.2 hPa | 0 mm | - | 114 W/m² | - |
| 1777757338 | 11.11° C | 38% | 1017.2 hPa | 0 mm | - | 108 W/m² | - |
| 1777757036 | 10.56° C | 41% | 1017.1 hPa | 0 mm | - | 119 W/m² | - |
| 1777756733 | 11.11° C | 39% | 1017 hPa | 0 mm | - | 141 W/m² | - |
| 1777756429 | 11.11° C | 40% | 1017.1 hPa | 0 mm | - | 202 W/m² | - |
| 1777756126 | 11.11° C | 39% | 1017.1 hPa | 0 mm | - | 215 W/m² | - |
| 1777755823 | 11.11° C | 41% | 1017.1 hPa | 0 mm | - | 555 W/m² | - |
| 1777755521 | 10.56° C | 43% | 1017 hPa | 0 mm | - | 728 W/m² | - |
| 1777755216 | 10.56° C | 40% | 1017.1 hPa | 0 mm | - | 213 W/m² | - |
| 1777754914 | 10.56° C | 42% | 1017.5 hPa | 0 mm | - | 246 W/m² | - |
| 1777754611 | 11.11° C | 40% | 1017.4 hPa | 0 mm | - | 284 W/m² | - |
| 1777754309 | 11.67° C | 41% | 1017.1 hPa | 0 mm | - | 281 W/m² | - |
| 1777754006 | 11.67° C | 41% | 1017.4 hPa | 0 mm | - | 355 W/m² | - |
| 1777753706 | 11.11° C | 42% | 1017.5 hPa | 0 mm | - | 270 W/m² | - |
| 1777753404 | 10.56° C | 41% | 1017.6 hPa | 0 mm | - | 358 W/m² | - |
| 1777753102 | 10° C | 42% | 1017.7 hPa | 0 mm | - | 596 W/m² | - |
| 1777752797 | 10° C | 44% | 1017.5 hPa | 0 mm | - | 236 W/m² | - |
| 1777752495 | 10° C | 44% | 1017.6 hPa | 0 mm | - | 276 W/m² | - |
| 1777752190 | 10.56° C | 44% | 1017.9 hPa | 0 mm | - | 344 W/m² | - |
| 1777751889 | 10.56° C | 40% | 1018 hPa | 0 mm | - | 316 W/m² | - |
| 1777751585 | 11.11° C | 42% | 1018.1 hPa | 0 mm | - | 345 W/m² | - |
* Rain latest hour (hover to see other rain measurements)
** Current wind speed in m/s (hover to see current wind gust speed)